Regional Weather Roundup
Issued by NWS Little Rock, AR

Home | Current Version | Previous Version | Graphics & Text | Print | Product List | Glossary Off
Versions: 1 2 3 4 5 6 7 8 9 10 11 12 13 14 15 16 17 18 19 20 21 22 23 24 25 26 27 28 29 30 31 32

000
ASUS44 KLZK 231305
RWRLZK

WEATHER ROUNDUP FOR ARKANSAS
NATIONAL WEATHER SERVICE LITTLE ROCK AR
700 AM CST THU NOV 23 2017

NOTE: "FAIR" INDICATES FEW OR NO CLOUDS BELOW 12,000 FEET WITH NO
SIGNIFICANT WEATHER AND/OR OBSTRUCTIONS TO VISIBILITY.

ARZ001-003-010-029-231400-
NORTHWEST ARKANSAS

CITY           SKY/WX    TMP DP  RH WIND       PRES   REMARKS
FAYETTEVILLE   CLOUDY    27  25  92 CALM      30.16F
FORT SMITH     PTCLDY    31  28  89 CALM      30.20R
HARRISON       CLOUDY    32  24  72 CALM      30.13F
BENTONVILLE    CLEAR     32  24  72 S5        30.17S WCI  27
ROGERS         CLEAR     32  24  72 S6        30.15S WCI  26
SILOAM SPGS    CLOUDY    29  23  78 S5        30.16S WCI  24
HIGHFILL       PTCLDY    30  23  75 CALM      30.15S
SPRINGDALE     CLEAR     30  25  80 CALM      30.17S
$$

ARZ004-005-016-231400-
NORTH CENTRAL ARKANSAS

CITY           SKY/WX    TMP DP  RH WIND       PRES   REMARKS
BATESVILLE     PTCLDY    25  23  92 CALM      30.19F
FLIPPIN        CLOUDY    26  23  88 CALM      30.16F
MTN HOME       CLOUDY    27  21  78 SW3       30.13F
$$

ARZ040-041-231400-
WEST CENTRAL ARKANSAS

CITY           SKY/WX    TMP DP  RH WIND       PRES   REMARKS
MENA           PTCLDY    30  28  93 CALM      30.18S
MOUNT IDA      CLOUDY    26  24  92 CALM      30.17R
$$

ARZ009-017-025-026-028-231400-
NORTHEAST ARKANSAS

CITY           SKY/WX    TMP DP  RH WIND       PRES   REMARKS
JONESBORO      CLOUDY    26  24  92 CALM      30.19F
NEWPORT        PTCLDY    26  24  92 CALM      30.21F
WALNUT RIDGE     N/A     26  25  96 CALM      30.20S
BLYTHEVILLE    CLEAR     27  26  96 CALM      30.20F
$$

ARZ022-023-033-042-044-231400-
CENTRAL ARKANSAS

CITY           SKY/WX    TMP DP  RH WIND       PRES   REMARKS
LITTLE ROCK    PTCLDY    30  28  92 CALM      30.22S
N LITTLE ROCK    N/A     33  24  69 CALM      30.24R
JACKSONVILLE   PTCLDY    25  22  88 CALM      30.20S
SEARCY         CLOUDY    25  25 100 CALM      30.22S
HOT SPRINGS    PTCLDY    30  27  88 CALM      30.21R
RUSSELLVILLE   CLOUDY    27  26  96 CALM      30.19S
CLINTON        FAIR      25  23  93 CALM      30.21S
$$

ARZ036-231400-
EAST ARKANSAS

CITY           SKY/WX    TMP DP  RH WIND       PRES   REMARKS
WEST MEMPHIS   CLOUDY    26  25  96 CALM      30.20S
$$

ARZ050-053-066-070-073-231400-
SOUTHWEST ARKANSAS

CITY           SKY/WX    TMP DP  RH WIND       PRES   REMARKS
ARKADELPHIA    FAIR      23  20  88 CALM      30.23R
CAMDEN         CLOUDY    27  23  86 CALM      30.22S
TEXARKANA      PTCLDY    29  28  96 CALM      30.20S
EL DORADO      CLOUDY    31  29  92 CALM      30.22R
DE QUEEN       CLOUDY    27  27 100 E3        30.19S
$$

ARZ056-057-069-231400-
SOUTHEAST ARKANSAS

CITY           SKY/WX    TMP DP  RH WIND       PRES   REMARKS
PINE BLUFF     CLOUDY    27  25  92 NW3       30.22R
STUTTGART      PTCLDY    27  26  96 NW3       30.22S
MONTICELLO     PTCLDY    28  24  85 CALM      30.21R

$$






USA.gov is the U.S. government's official web portal to all federal, state and local government web resources and services.